[[{"header":{"parameterUnit":"m.s-1","parameterCategory":1,"la1":30.2991,"la2":30.254,"lo1":-89.0895,"lo2":-89.0444,"dy":0.0017,"dx":0.0017,"nx":28,"ny":28,"refTime":"2026-01-11T03:00:00:Z","depth":0,"parameterNumber":2,"parameterNumberName":"U-component_of_WINDS"},"data":[0,0,0,0,0,0,0,0,0,0,0,0,0,0,0,0,0,0,0,0,0,0,0,0,0,0,0,0,0,0,0,0,0,0,0,0,0,0,0,0,0,0,0,0,0,0,0,0,0,0,0,0,0,0,0,0,0,0,-0.9375,-0.9375,0,-0.9391,-0.9391,-0.9391,-0.9371,-0.937,-0.9369,-0.9369,-0.9386,-0.9387,-0.9388,0,0,0,0,0,0,0,0,0,0,0,0,0,-0.9327,-0.9328,-0.9375,-0.9375,-0.9376,-0.9391,-0.9391,-0.9391,-0.9371,-0.937,-0.9369,-0.9368,-0.9386,-0.9387,-0.9388,0,0,0,0,0,0,0,0,0,0,0,0,0,-0.9346,-0.9328,-0.9375,-0.9367,-0.9367,-0.9391,-0.9391,-0.9391,-0.9371,-0.937,-0.9369,-0.9368,-0.9385,-0.9387,-0.9388,-0.9421,0,0,-0.9394,-0.9394,0,0,0,0,0,0,0,0,-0.9345,-0.9348,-0.9368,-0.9368,-0.9367,-0.9378,-0.9381,-0.9402,-0.9372,-0.937,-0.9369,-0.9367,-0.9384,-0.9386,-0.9391,-0.9422,-0.9423,-0.9394,-0.9395,-0.9396,-0.9396,0,0,0,0,0,0,0,-0.9344,-0.9347,-0.9381,-0.9369,-0.9368,-0.9363,-0.9364,-0.9384,-0.9383,-0.937,-0.9368,-0.937,-0.9384,-0.939,-0.9392,-0.9423,-0.9394,-0.9395,-0.9396,-0.9397,-0.9481,-0.9483,0,0,0,0,0,0,-0.9343,-0.9346,-0.9381,-0.9382,-0.9353,-0.9365,-0.9366,-0.9376,-0.9383,-0.9383,-0.9371,-0.9369,-0.9387,-0.939,-0.9392,-0.9431,-0.9396,-0.9397,-0.9398,-0.948,-0.9482,-0.9483,0,0,0,0,0,0,-0.9342,-0.9347,-0.938,-0.9364,-0.9367,-0.9367,-0.9377,-0.9377,-0.9383,-0.9384,-0.9384,-0.9378,-0.9387,-0.939,-0.9414,-0.9431,-0.9398,-0.94,-0.9479,-0.9481,-0.9482,-0.951,0,0,0,0,0,0,-0.9341,-0.9346,-0.9359,-0.9364,-0.9368,-0.9402,-0.9378,-0.9378,-0.9385,-0.9383,-0.939,-0.939,-0.9386,-0.9412,-0.9416,-0.9433,-0.9401,-0.9477,-0.948,-0.9482,-0.9507,-0.9512,-0.9516,0,0,0,0,0,-0.9339,-0.9366,-0.936,-0.9364,-0.9384,-0.9403,-0.9406,-0.94,-0.9387,-0.94,-0.94,-0.939,-0.9429,-0.9414,-0.9419,-0.9437,-0.9476,-0.9479,-0.9482,-0.9505,-0.9511,-0.9516,0,0,0,0,0,0,-0.9364,-0.9367,-0.936,-0.9389,-0.9396,-0.94,-0.9416,-0.9407,-0.9418,-0.9415,-0.9408,-0.941,-0.9436,-0.9439,-0.9423,-0.9469,-0.945,-0.9454,-0.9467,-0.9472,-0.9477,-0.9476,-0.9402,0,0,0,0,0,-0.9373,-0.9388,-0.9389,-0.9415,-0.9419,-0.9417,-0.9425,-0.942,-0.9427,-0.943,-0.9432,-0.944,-0.9453,-0.9463,-0.9476,-0.9507,-0.9508,-0.9522,-0.9526,-0.953,-0.9534,-0.955,-0.9556,-0.9492,-0.9492,-0.9492,0,0,-0.9391,-0.9395,-0.9405,-0.942,-0.9425,-0.9441,-0.9419,-0.9437,-0.9449,-0.9433,-0.9456,-0.9458,-0.9465,-0.9493,-0.9506,-0.9497,-0.9551,-0.9533,-0.9536,-0.9538,-0.9553,-0.9559,-0.9565,-0.9494,-0.9493,-0.9493,0,0,-0.9433,-0.9437,-0.9459,-0.9464,-0.9471,-0.9469,-0.9474,-0.9479,-0.948,-0.9503,-0.9491,-0.9504,-0.9528,-0.9534,-0.954,-0.9583,-0.9574,-0.9587,-0.9612,-0.9628,-0.9633,-0.9637,-0.9653,-0.9658,-0.9591,-0.9591,-0.9591,0,-0.9455,-0.9478,-0.9471,-0.9489,-0.9497,-0.9482,-0.9504,-0.9509,-0.952,-0.9526,-0.9515,-0.9544,-0.9548,-0.9577,-0.9587,-0.9593,-0.9598,-0.9587,-0.9633,-0.9637,-0.9641,-0.9656,-0.9661,-0.9592,-0.9592,-0.9592,-0.9592,0,-0.9505,-0.9521,-0.9538,-0.9549,-0.9557,-0.9578,-0.9573,-0.9583,-0.9577,-0.9576,-0.96,-0.9604,-0.9617,-0.9623,-0.9618,-0.9651,-0.9645,-0.9634,-0.9615,-0.9649,-0.9662,-0.9668,-0.9595,-0.9594,-0.9594,-0.9593,0,0,-0.9564,-0.957,-0.9576,-0.958,-0.9587,-0.9599,-0.9618,-0.9631,-0.9639,-0.9647,-0.9663,-0.9683,-0.9672,-0.9679,-0.9674,-0.9688,-0.9721,-0.9674,-0.9674,-0.9683,-0.9759,-0.9768,-0.9774,-0.9715,-0.9716,-0.9717,-0.9758,0,-0.9606,-0.9639,-0.9632,-0.9665,-0.9679,-0.9665,-0.9682,-0.9687,-0.9687,-0.9699,-0.9698,-0.9713,-0.9697,-0.9701,-0.9714,-0.9715,-0.9737,-0.9711,-0.973,-0.9731,-0.9729,-0.9781,-0.9791,-0.983,-0.9763,-0.9764,-0.9765,0,-0.966,-0.9669,-0.9703,-0.9706,-0.9712,-0.9727,-0.9738,-0.975,-0.9755,-0.9754,-0.9761,-0.9753,-0.9772,-0.9752,-0.9778,-0.9761,-0.9768,-0.9769,-0.977,-0.9772,-0.975,-0.9785,-0.9843,-0.9849,-0.9773,-0.9772,-0.9772,0,-0.97,-0.972,-0.9743,-0.9747,-0.9752,-0.9763,-0.9765,-0.977,-0.9778,-0.9787,-0.9792,-0.9803,-0.9809,-0.9818,-0.9813,-0.9799,-0.984,-0.982,-0.9839,-0.984,-0.9849,-0.9849,-0.9909,-0.9853,-0.9853,-0.9853,-0.9853,0,-0.9747,-0.9769,-0.9761,-0.9775,-0.9798,-0.979,-0.9814,-0.9814,-0.9818,-0.9832,-0.982,-0.9834,-0.9826,-0.9839,-0.9835,-0.9857,-0.986,-0.9859,-0.9858,-0.9861,-0.9861,-0.9866,-0.9863,-0.9854,-0.9854,-0.9854,-0.9853,0,-0.9796,-0.9792,-0.9816,-0.9818,-0.9819,-0.9836,-0.9838,-0.9851,-0.9849,-0.9866,-0.987,-0.9867,-0.9881,-0.9877,-0.9892,-0.9889,-0.9917,-0.9913,-0.9915,-0.9914,-0.9935,-0.9933,-1.0001,-1.0009,-0.9947,-0.9948,-0.9948,0,-0.9828,-0.9844,-0.9847,-0.9855,-0.9858,-0.9872,-0.9879,-0.9872,-0.988,-0.9887,-0.99,-0.9912,-0.9923,-0.9946,-0.9945,-0.9957,-0.9952,-0.9975,-0.9954,-0.9956,-0.9953,-0.9952,-0.9954,-0.998,-0.998,-0.9981,-0.9981,0,-0.9884,-0.988,-0.9892,-0.9902,-0.9911,-0.9919,-0.9926,-0.9933,-0.9926,-0.9936,-0.995,-0.9958,-0.9973,-0.9986,-0.9996,-0.9999,-0.9989,-0.9988,-0.9993,-0.9996,-0.9997,-0.9997,-0.9928,-0.9987,-0.9986,-0.9986,-0.9985,-0.9985,-0.9925,-0.9938,-0.9943,-0.9955,-0.9959,-0.9966,-0.9978,-0.9977,-0.9989,-1.0,-0.9995,-1.0011,-1.0016,-1.0028,-1.0032,-1.0045,-1.0036,-1.0044,-1.0046,-1.0048,-1.005,-0.9995,-1.0046,-1.0046,-1.0046,-1.0046,-1.0046,0,-0.9981,-0.9982,-0.9994,-1.0004,-1.0014,-1.0003,-1.0009,-1.0018,-1.0033,-1.0038,-1.0048,-1.0064,-1.0076,-1.0076,-1.0087,-1.0097,-1.0093,-1.01,-1.01,-1.0101,-1.0057,-1.0052,-1.0104,-1.0103,-1.0103,-1.0103,-1.0103,-1.0103,-1.0011,-1.0033,-1.003,-1.0053,-1.0055,-1.007,-1.0075,-1.0081,-1.0085,-1.0103,-1.0113,-1.0113,-1.0115,-1.0127,-1.0137,-1.0137,-1.0142,-1.0151,-1.0149,-1.0109,-1.0104,-1.0098,-1.0093,-1.0152,-1.0152,-1.0191,-1.0192,-1.0192]},{"header":{"parameterUnit":"m.s-1","parameterCategory":1,"la1":30.2991,"la2":30.254,"lo1":-89.0895,"lo2":-89.0444,"dy":0.0017,"dx":0.0017,"nx":28,"ny":28,"refTime":"2026-01-11T03:00:00:Z","depth":0,"parameterNumber":3,"parameterNumberName":"V-component_of_WINDS"},"data":[0,0,0,0,0,0,0,0,0,0,0,0,0,0,0,0,0,0,0,0,0,0,0,0,0,0,0,0,0,0,0,0,0,0,0,0,0,0,0,0,0,0,0,0,0,0,0,0,0,0,0,0,0,0,0,0,0,0,-6.8775,-6.8776,0,-6.8874,-6.8875,-6.8876,-6.8848,-6.8846,-6.8844,-6.8842,-6.8937,-6.8942,-6.8946,0,0,0,0,0,0,0,0,0,0,0,0,0,-6.8559,-6.8563,-6.8775,-6.8776,-6.8778,-6.8874,-6.8875,-6.8876,-6.8848,-6.8846,-6.8843,-6.8841,-6.8936,-6.8941,-6.8946,0,0,0,0,0,0,0,0,0,0,0,0,0,-6.8654,-6.8564,-6.8775,-6.8775,-6.8776,-6.8873,-6.8875,-6.8877,-6.8849,-6.8846,-6.8843,-6.884,-6.8934,-6.894,-6.8947,-6.9048,0,0,-6.8967,-6.897,0,0,0,0,0,0,0,0,-6.8649,-6.8662,-6.8774,-6.8775,-6.8777,-6.8846,-6.8834,-6.8934,-6.8849,-6.8821,-6.8842,-6.8838,-6.8909,-6.8917,-6.8942,-6.9053,-6.9057,-6.8968,-6.8972,-6.8975,-6.8977,0,0,0,0,0,0,0,-6.8642,-6.8658,-6.8814,-6.8776,-6.8777,-6.8769,-6.8779,-6.8852,-6.888,-6.8823,-6.8821,-6.8834,-6.8909,-6.8936,-6.8944,-6.9058,-6.8968,-6.8974,-6.8978,-6.898,-6.9258,-6.9261,0,0,0,0,0,0,-6.8635,-6.8652,-6.8811,-6.8817,-6.8704,-6.8776,-6.8787,-6.8826,-6.888,-6.8885,-6.8836,-6.8832,-6.8926,-6.8937,-6.8947,-6.9071,-6.8975,-6.8981,-6.8985,-6.9255,-6.9259,-6.9262,0,0,0,0,0,0,-6.8631,-6.865,-6.8807,-6.8734,-6.8754,-6.8783,-6.8827,-6.883,-6.8857,-6.8889,-6.8894,-6.8859,-6.8924,-6.8938,-6.9024,-6.9074,-6.8984,-6.899,-6.9251,-6.9256,-6.9261,-6.9317,0,0,0,0,0,0,-6.8625,-6.8648,-6.8688,-6.8736,-6.8758,-6.8883,-6.883,-6.8834,-6.8869,-6.8865,-6.8912,-6.8917,-6.8923,-6.9014,-6.9031,-6.9081,-6.8995,-6.9246,-6.9253,-6.9259,-6.9311,-6.9324,-6.9335,0,0,0,0,0,-6.8617,-6.8698,-6.869,-6.8709,-6.8808,-6.8886,-6.8899,-6.8906,-6.8873,-6.8913,-6.8934,-6.8915,-6.9066,-6.9023,-6.9042,-6.9095,-6.9243,-6.9251,-6.9259,-6.9306,-6.9321,-6.9334,0,0,0,0,0,0,-6.8653,-6.8704,-6.8696,-6.8795,-6.8837,-6.8881,-6.8931,-6.8921,-6.8971,-6.8965,-6.897,-6.898,-6.9069,-6.909,-6.9042,-6.9196,-6.9149,-6.9161,-6.9179,-6.9194,-6.9206,-6.9199,-6.9,0,0,0,0,0,-6.8673,-6.8733,-6.8774,-6.8858,-6.888,-6.8902,-6.8936,-6.8938,-6.8981,-6.8998,-6.9025,-6.9066,-6.9122,-6.9159,-6.9213,-6.9314,-6.9324,-6.936,-6.9371,-6.9381,-6.9391,-6.9448,-6.9464,-6.9288,-6.9288,-6.9288,0,0,-6.8713,-6.8749,-6.8787,-6.8866,-6.8899,-6.8961,-6.8917,-6.8983,-6.9029,-6.9007,-6.9091,-6.9113,-6.9158,-6.9253,-6.9296,-6.9273,-6.9442,-6.9391,-6.9398,-6.9403,-6.9457,-6.9474,-6.9489,-6.9293,-6.9292,-6.9291,0,0,-6.882,-6.8853,-6.8927,-6.8962,-6.9012,-6.9027,-6.9045,-6.9092,-6.9106,-6.9191,-6.9176,-6.923,-6.9327,-6.9361,-6.9391,-6.9513,-6.9498,-6.953,-6.9591,-6.9646,-6.966,-6.9672,-6.9717,-6.9733,-6.9539,-6.954,-6.954,0,-6.8863,-6.8958,-6.8966,-6.9035,-6.9071,-6.9056,-6.9132,-6.9164,-6.9229,-6.9253,-6.9227,-6.935,-6.938,-6.9483,-6.9513,-6.9537,-6.9558,-6.9524,-6.9657,-6.967,-6.9682,-6.9724,-6.9741,-6.9543,-6.9543,-6.9542,-6.9542,0,-6.901,-6.9076,-6.9129,-6.9196,-6.9237,-6.9309,-6.9327,-6.9368,-6.9367,-6.9384,-6.9471,-6.9506,-6.9568,-6.9592,-6.959,-6.9696,-6.968,-6.9656,-6.9609,-6.9702,-6.9742,-6.9758,-6.9548,-6.9547,-6.9546,-6.9545,0,0,-6.914,-6.9213,-6.9232,-6.9263,-6.9319,-6.9369,-6.944,-6.9503,-6.9539,-6.9584,-6.9644,-6.9727,-6.9706,-6.974,-6.9742,-6.9791,-6.9887,-6.976,-6.9761,-6.9784,-7.0006,-7.0025,-7.0044,-6.9877,-6.988,-6.9883,-7.0003,0,-6.9253,-6.938,-6.9391,-6.9505,-6.9567,-6.9554,-6.9616,-6.9657,-6.9676,-6.9729,-6.9748,-6.9808,-6.9775,-6.9796,-6.9843,-6.9865,-6.9932,-6.9856,-6.9932,-6.9935,-6.9922,-7.0065,-7.0084,-7.0196,-7.0019,-7.0021,-7.0023,0,-6.94,-6.9454,-6.9575,-6.9625,-6.9651,-6.9707,-6.9766,-6.9818,-6.9864,-6.9874,-6.9913,-6.9909,-6.9982,-6.9932,-7.0032,-6.9981,-7.0013,-7.0028,-7.0033,-7.0041,-6.9985,-7.0077,-7.0232,-7.0249,-7.0048,-7.0046,-7.0044,0,-6.9485,-6.9587,-6.9674,-6.97,-6.976,-6.98,-6.9826,-6.9869,-6.9907,-6.9958,-6.9983,-7.004,-7.0072,-7.0117,-7.0128,-7.0091,-7.0229,-7.018,-7.0239,-7.0239,-7.0268,-7.0266,-7.0431,-7.0287,-7.0287,-7.0287,-7.0286,0,-6.961,-6.9685,-6.9713,-6.9766,-6.985,-6.9861,-6.9943,-6.9967,-7.0006,-7.0063,-7.0055,-7.0108,-7.012,-7.0175,-7.0184,-7.0266,-7.028,-7.029,-7.0292,-7.0291,-7.029,-7.0312,-7.0305,-7.0291,-7.029,-7.0289,-7.0289,0,-6.9719,-6.9741,-6.9835,-6.9885,-6.9899,-6.9959,-7.0001,-7.0052,-7.007,-7.0142,-7.016,-7.0187,-7.0252,-7.0269,-7.0345,-7.0351,-7.0449,-7.0442,-7.0434,-7.0434,-7.0493,-7.0488,-7.0678,-7.0704,-7.0543,-7.0544,-7.0545,0,-6.9797,-6.9856,-6.9913,-6.9952,-6.9981,-7.0043,-7.0083,-7.0095,-7.0136,-7.0195,-7.0238,-7.0303,-7.0356,-7.046,-7.0486,-7.0545,-7.054,-7.0603,-7.0549,-7.0548,-7.0543,-7.054,-7.0546,-7.0614,-7.0615,-7.0617,-7.0618,0,-6.9935,-6.9944,-7.0002,-7.0065,-7.0113,-7.0162,-7.0209,-7.0241,-7.026,-7.0307,-7.0375,-7.0416,-7.0496,-7.056,-7.062,-7.0645,-7.0635,-7.0635,-7.0652,-7.0653,-7.0646,-7.0652,-7.0464,-7.063,-7.0629,-7.0628,-7.0628,-7.0627,-7.0032,-7.0084,-7.0134,-7.0199,-7.0237,-7.0281,-7.0333,-7.0358,-7.0416,-7.0484,-7.0487,-7.0562,-7.0607,-7.0687,-7.0716,-7.0773,-7.0754,-7.0778,-7.0785,-7.0791,-7.0797,-7.0637,-7.0784,-7.0784,-7.0783,-7.0783,-7.0783,0,-7.017,-7.0202,-7.0263,-7.0331,-7.0383,-7.0371,-7.0423,-7.0466,-7.0533,-7.0577,-7.063,-7.0708,-7.0771,-7.0803,-7.0866,-7.0905,-7.0902,-7.0921,-7.0919,-7.0925,-7.081,-7.0789,-7.0923,-7.0923,-7.0923,-7.0923,-7.0923,-7.0923,-7.0249,-7.0337,-7.0352,-7.0458,-7.0489,-7.0564,-7.0595,-7.0636,-7.0672,-7.0761,-7.0814,-7.0835,-7.0875,-7.094,-7.0998,-7.1005,-7.1029,-7.1051,-7.1056,-7.0947,-7.0933,-7.0919,-7.0901,-7.1055,-7.1056,-7.1167,-7.1168,-7.1169]}]]